Meteo Giornale » Osservazioni meteo Svizzera » Lugano

ore: 19:50 - Osservazioni Meteo Lugano
Lat. 46° 0' N Lon. 8° 58' E Alt. 273 metri s.l.m.

sereno Europe/Zurich

23 °C

Sereno

Temp. 24 Ore

18 °C

28 °C

Nord

1.8 Km/h

Dew point 19 °C

Umidità 78 %

Visibilità  10 Km

Il sole sorge alle ore 06:31

Il sole tramonta alle ore 20:22

Data e Ora Cielo e Fenomeni T °C DP °C Um. % Pres. hPa Vis. km Vento km/h
Oggi h: 19:50 sereno Sereno 23 19 78 1021 10 N 1.8
Oggi h: 19:20 sereno Sereno 24 19 73 1020 10 N 3.7
Oggi h: 18:50 sereno Sereno 26 19 65 1020 10 N 5.5
Oggi h: 18:20 sereno Sereno 25 18 65 1020 10 N 5.5
Oggi h: 17:50 sereno Sereno 26 17 57 1020 10 N 5.5
Oggi h: 17:20 nuvoloso Nuvoloso 27 17 54 1021 10 O 7.4
Oggi h: 16:50 nuvoloso Nuvoloso 28 16 48 1021 10 N 3.7
Oggi h: 16:20 nuvoloso Nuvoloso 27 16 50 1021 10 O/SO 9.3
Oggi h: 15:50 nuvoloso Nuvoloso 27 17 54 1021 10 N 3.7
Oggi h: 15:20 poco_nuvoloso Poco Nuvoloso 27 17 54 1022 10 N 1.8
Oggi h: 14:50 sereno Sereno 26 16 54 1022 10 N 3.7
Oggi h: 14:20 sereno Sereno 26 18 61 1022 10 N 1.8
Oggi h: 13:50 sereno Sereno 25 17 61 1022 10 N 3.7
Oggi h: 13:20 sereno Sereno 24 17 64 1023 10 N 3.7
Oggi h: 12:50 sereno Sereno 24 17 64 1023 10 N 5.5
Oggi h: 12:20 sereno Sereno 24 17 64 1023 10 N 3.7
Oggi h: 11:50 sereno Sereno 23 17 68 1023 10 N 3.7
Oggi h: 11:20 sereno Sereno 22 17 73 1023 10 N 1.8
Oggi h: 10:50 sereno Sereno 22 17 73 1023 10 N 1.8
Oggi h: 10:20 nuvoloso Nuvoloso 22 18 78 1023 10 N 1.8
Oggi h: 09:50 nuvoloso Nuvoloso 22 18 78 1023 10 N 1.8
Oggi h: 09:20 nuvoloso Nuvoloso 20 19 93 1023 10 N 1.8
Oggi h: 08:50 sereno Sereno 20 19 93 1023 10 N 1.8
Oggi h: 08:20 molto_nuvoloso Molto Nuvoloso 19 18 93 1023 10 N 1.8
Oggi h: 07:50 molto_nuvoloso Molto Nuvoloso 18 18 100 1023 10 N 3.7
Oggi h: 07:20 molto_nuvoloso Molto Nuvoloso 18 18 100 1023 10 N 1.8
Oggi h: 06:50 molto_nuvoloso Rovescio nelle Vicinanze 18 17 93 1023 10 N 3.7
Oggi h: 06:20 nuvoloso_piovaschi Debole Rovescio di Pioggia 19 18 93 1023 10 N 7.4
Oggi h: 05:50 coperto_pioggia Pioggia Debole 19 18 93 1023 10 N 5.5
Oggi h: 05:20 molto_nuvoloso Molto Nuvoloso 19 19 100 1023 10 N 7.4
Oggi h: 04:50 nuvoloso_temporali Temporale nelle Vicinanze 19 18 93 1023 10 N 3.7
Oggi h: 04:20 nuvoloso_temporali Temporale nelle Vicinanze 19 19 100 1022 10 N 7.4
Oggi h: 03:50 nuvoloso_temporali Temporale con Pioggia Debole 20 18 88 1022 10 N 7.4
Oggi h: 03:20 coperto_pioggia Pioggia Debole 21 20 94 1022 10 N/NE 9.3
Oggi h: 02:50 coperto_pioggia Pioggia Debole Temporale nelle Vicinanze 21 20 94 1022 10 N/NE 7.4
Oggi h: 02:20 nuvoloso_temporali Temporale con Pioggia Debole 20 20 100 1022 10 N 5.5
Oggi h: 01:50 nuvoloso_temporali Temporale nelle Vicinanze 21 20 94 1021 10 N 5.5
Oggi h: 01:20 nuvoloso_temporali Temporale nelle Vicinanze 21 19 88 1021 10 N 5.5
Oggi h: 00:50 nuvoloso_temporali Temporale nelle Vicinanze 21 19 88 1021 10 N 1.8
Oggi h: 00:20 poco_nuvoloso Poco Nuvoloso 21 19 88 1021 10 N 1.8
Ieri h: 23:50 nuvoloso Nuvoloso 21 20 94 1021 10 N 3.7
Ieri h: 23:20 molto_nuvoloso Molto Nuvoloso 22 20 88 1021 10 N 1.8
Ieri h: 22:50 molto_nuvoloso Molto Nuvoloso 22 20 88 1021 10 N 3.7
Ieri h: 22:20 molto_nuvoloso Molto Nuvoloso 22 20 88 1020 10 N 1.8
Ieri h: 21:50 sereno Sereno 23 19 78 1020 10 N 1.8
Ieri h: 21:20 nuvoloso Nuvoloso 23 20 83 1020 10 N 5.5
Ieri h: 20:50 sereno Sereno 23 20 83 1019 10 N 1.8